Weather in Orlovka

Russia / Republic of Crimea     44°43′45″N   33°34′52″E
temp.,
°C
wind,
m/s
gust,
m/s
humid.,
%
clouds,
%
prec.,
mm/h
press.,
hPa
HPBL,
m
1 march, mon
mon100:00+6n567298 0.3 1025917
03:00+5n127399 0.4 1024568
06:00+4ese1181100 0.3 1025353
09:00+4ene2282100 0.5 1025398
12:00+5ne2369100 0.1 1026663
15:00+6nnw4467100 0.1 1026445
18:00+6n666869 0.0 1027710
21:00+5ne676339 0.0 1029837
2 march, tue
tue200:00+5ne56690 0.0 1030578
03:00+4ne56720 0.0 1031576
06:00+3ne46730 0.0 1031462
09:00+3ne23720 0.0 1031351
12:00+4nnw32700 0.0 1031530
15:00+4wnw44650 0.0 1030714
18:00+5w45641 0.0 1028929
21:00+5w566926 0.0 1027900
3 march, wed
wed300:00+6wsw687344 0.0 1026704
03:00+7wsw9117950 0.0 1023873
06:00+8nw897866 0.1 1022805
09:00+6n897565 0.1 1024954
12:00+6n8973100 0.1 10251102
15:00+7n776077 0.2 10261133
18:00+8n67560 0.0 10271289
21:00+7nne34540 0.0 1029915
4 march, thu
thu400:00+6ene22590 0.0 1029229
03:00+5sse33590 0.0 1028161
06:00+5sse33590 0.0 1027226
09:00+6s34610 0.0 1027401
12:00+7ssw55610 0.0 10261032
15:00+7sw66630 0.0 1024988
18:00+7ssw78670 0.0 1022947
21:00+7ssw89730 0.0 1021855
5 march, fri
fri500:00+6ssw810730 0.0 1020778
03:00+6ssw810760 0.0 1019719
06:00+6s911780 0.0 1018619
09:00+7s911775 0.0 1018601
12:00+8s911760 0.0 1017580
15:00+9s1012743 0.0 1016590
18:00+8s1013807 0.0 1015469
21:00+8s1115814 0.0 1015506